Location: Unspecified
(49.2170°N, 0.0000°E)
Time: 01:28:38
(UTC+00:00)

Vanguard 3 - Pass Details

Date: 30 June 2019
Orbit: 507 x 3264 km, 33.4° (Epoch: 22 July)

Event Time Altitude Azimuth Distance (km) Brightness Sun altitude
Rises 08:36:07 0° 226° (SW) 7,221 11.7 42.0°
Reaches altitude 10° 08:41:50 10° 219° (SW) 6,109 11.5 42.9°
Maximum altitude 08:57:09 34° 164° (SSE) 3,749 11.4 45.3°
Drops below altitude 10° 09:08:03 10° 107° (ESE) 4,367 11.9 46.9°
Sets 09:11:20 0° 98° (E) 5,005 11.9 47.4°
